Location: Unspecified
(54.8312°N, 0.0000°E)
Time: 19:53:57
(UTC+00:00)

ISS - Visible Passes

Search period start: 17 November 2019 00:00
Search period end: 27 November 2019 00:00
Orbit: 412 x 421 km, 51.6° (Epoch: 18 November)

Date Brightness Start Highest point End Pass type
(mag) Time Alt. Az. Time Alt. Az. Time Alt. Az.
23 Nov -1.1 18:16:04 10° S 18:16:31 12° S 18:16:31 12° S visible
24 Nov -1.3 17:29:07 10° SSE 17:29:52 11° SE 17:30:10 10° SE visible
24 Nov -0.7 19:02:49 10° SW 19:03:05 12° SW 19:03:05 12° SW visible
25 Nov -1.9 18:14:43 10° SSW 18:16:40 22° S 18:16:40 22° S visible
26 Nov -1.9 17:26:46 10° SSW 17:29:14 19° SSE 17:30:11 17° SE visible
26 Nov -0.9 19:02:15 10° WSW 19:03:05 16° SW 19:03:05 16° SW visible
